{"data":{"norad_id":69371,"intl_designator":"2026-123U","name":"STARLINK-37645","alt_names":[],"object_type":"PAYLOAD","status":"ACTIVE","operator":null,"country":"US","launch_date":"2026-06-04","launch_site_code":"AFETR","launch_vehicle":null,"mission":null,"orbit_class":"UNKNOWN","rcs_meters":null,"size_class":null,"mass_kg":null,"dimensions":null,"purposes":["comms"],"wikipedia_slug":null,"has_3d_model":false,"image_url":null,"decayed_at":null,"tle_current":{"epoch":"2026-09-20T01:53:54.304800Z","epoch_age_seconds":65412,"freshness":"FRESH","line1":"1 69371U 26123U   26263.07910075  .00016762  00000+0  50582-3 0  9992","line2":"2 69371  53.1580 143.8046 0001058  96.6425 263.4698 15.34418426 16803","mean_motion":15.34418426,"eccentricity":0.0001058,"inclination_deg":53.158,"raan_deg":143.8046,"arg_perigee_deg":96.6425,"mean_anomaly_deg":263.4698,"bstar":0.00050582,"rev_number":1680,"period_min":93.846631114426,"perigee_km":461.92471969681,"apogee_km":463.37222990328,"semimajor_km":6840.7854748,"source":"CELESTRAK","updated_at":"2026-09-20T09:00:44.168091Z"}}}